Change the Weather History Date:

Tuesday, May 28, 2013

  Actual Average Record
Temperature  
Mean Temperature 78 °F 68 °F  
Max Temperature 100 °F 82 °F 100 °F (2006)
Min Temperature 56 °F 55 °F 45 °F (1999)
Degree Days  
Heating Degree Days 0 1  
Month to date heating degree days 98 92  
Since 1 July heating degree days 4311 4445  
Cooling Degree Days 13 5  
Month to date cooling degree days 147 78  
Year to date cooling degree days 172 93  
Growing Degree Days 27 (Base 50)    
Moisture  
Dew Point 37 °F    
Average Humidity 34    
Maximum Humidity 61    
Minimum Humidity 6    
Precipitation  
Precipitation T in 0.10 in 0.95 in (2005)
Month to date precipitation 0.14 2.08  
Year to date precipitation 2.33 5.89  
Snow  
Snow 0.00 in - - ()
Month to date snowfall 0.3  
Since 1 July snowfall 22.3  
Snow Depth 0.00 in    
Sea Level Pressure  
Sea Level Pressure 29.51 in    
Wind  
Wind Speed 15 mph (South)    
Max Wind Speed 44 mph    
Max Gust Speed 54 mph    
Visibility 9 miles    
Events Rain , Thunderstorm    
T = Trace of Precipitation, MM = Missing Value Source: NWS Daily Summary

Daily Weather History Graph

Daily Weather History Graph

Search for Another Location

Airport or City:

Trip Planner

Search our weather history database for the weather conditions in past years. The results will help you decide how hot, cold, wet, or windy it might be!

Date:

Astronomy

May. 28, 2013 Rise Set
Actual Time 6:30 AM CDT 8:56 PM CDT
Civil Twilight 6:00 AM CDT 9:26 PM CDT
Nautical Twilight 5:23 AM CDT 10:03 PM CDT
Astronomical Twilight 4:43 AM CDT 10:44 PM CDT
Moon No Moon Rise 10:18 AM CDT (5/28)
Length of Visible Light 15h 26m
Length of Day
14h 26m
Waning Gibbous, 82% of the Moon is Illuminated
May 28
Waning Gibbous
May 31
Last Quarter
Jun 8
New
Jun 16
First Quarter
Jun 23
Full

Hourly Weather History & Observations

Time (CDT) Temp. Dew Point Humidity Pressure Visibility Wind Dir Wind Speed Gust Speed Precip Events Conditions
12:53 AM 73.0 °F 19.9 °F 14% 29.49 in 10.0 mi SW 11.5 mph - N/A   Clear
1:53 AM 64.0 °F 21.9 °F 20% 29.49 in 10.0 mi South 6.9 mph - N/A   Clear
2:53 AM 63.0 °F 24.1 °F 23% 29.50 in 10.0 mi South 13.8 mph - N/A   Clear
3:53 AM 59.0 °F 25.0 °F 27% 29.54 in 10.0 mi SSW 9.2 mph - N/A   Clear
4:53 AM 59.0 °F 25.0 °F 27% 29.54 in 10.0 mi SW 9.2 mph - N/A   Clear
5:53 AM 57.0 °F 24.1 °F 28% 29.57 in 10.0 mi SW 9.2 mph - N/A   Clear
6:53 AM 55.9 °F 27.0 °F 33% 29.58 in 10.0 mi Variable 4.6 mph - N/A   Clear
7:53 AM 62.1 °F 39.9 °F 44% 29.58 in 10.0 mi WNW 8.1 mph - N/A   Clear
8:53 AM 69.1 °F 55.9 °F 63% 29.57 in 10.0 mi WNW 9.2 mph - N/A   Clear
9:53 AM 78.1 °F 54.0 °F 43% 29.57 in 10.0 mi West 10.4 mph - N/A   Clear
10:53 AM 84.0 °F 44.1 °F 25% 29.56 in 10.0 mi West 6.9 mph - N/A   Clear
11:53 AM 88.0 °F 35.1 °F 15% 29.54 in 10.0 mi West 5.8 mph - N/A   Clear
12:53 PM 91.0 °F 30.0 °F 11% 29.52 in 10.0 mi East 5.8 mph - N/A   Clear
1:53 PM 95.0 °F 21.0 °F 7% 29.50 in 10.0 mi SSW 9.2 mph 23.0 mph N/A   Clear
2:53 PM 98.1 °F 19.9 °F 6% 29.46 in 10.0 mi South 19.6 mph 29.9 mph N/A   Clear
3:53 PM 99.0 °F 21.0 °F 6% 29.43 in 10.0 mi South 18.4 mph 29.9 mph N/A   Clear
4:53 PM 97.0 °F 48.9 °F 19% 29.39 in 10.0 mi SSE 29.9 mph 42.6 mph N/A   Clear
5:00 PM 95.0 °F 48.2 °F 20% 29.55 in 10.0 mi South 23.0 mph 42.6 mph N/A   Clear
5:45 PM 91.4 °F 42.8 °F 18% 29.55 in 10.0 mi South 20.7 mph 31.1 mph N/A Thunderstorm Clear
5:53 PM 90.0 °F 44.1 °F 20% 29.41 in 10.0 mi South 32.2 mph 46.0 mph N/A Thunderstorm Clear
5:56 PM 87.8 °F 48.2 °F 25% 29.55 in 8.0 mi South 32.2 mph 46.0 mph N/A   Partly Cloudy
6:53 PM 84.0 °F 44.1 °F 25% 29.42 in 8.0 mi South 35.7 mph 48.3 mph N/A   Partly Cloudy
7:04 PM 80.6 °F 42.8 °F 26% 29.54 in 2.0 mi South 38.0 mph 49.5 mph 0.00 in Rain Light Rain
7:13 PM 82.4 °F 39.2 °F 21% 29.57 in 7.0 mi South 23.0 mph 44.9 mph 0.00 in   Mostly Cloudy
7:53 PM 82.9 °F 39.9 °F 22% 29.44 in 10.0 mi SSE 19.6 mph 31.1 mph 0.00 in   Clear
8:53 PM 81.0 °F 39.9 °F 23% 29.45 in 10.0 mi SSE 15.0 mph 23.0 mph N/A   Mostly Cloudy
9:53 PM 80.1 °F 44.1 °F 28% 29.45 in 10.0 mi SSE 24.2 mph 38.0 mph N/A   Overcast
10:00 PM 78.8 °F 42.8 °F 28% 29.61 in 10.0 mi SSE 18.4 mph 34.5 mph N/A   Mostly Cloudy
10:25 PM 78.8 °F 42.8 °F 28% 29.61 in 10.0 mi SE 21.9 mph 29.9 mph N/A   Partly Cloudy
10:53 PM 78.1 °F 42.1 °F 28% 29.44 in 10.0 mi SE 16.1 mph 25.3 mph N/A   Partly Cloudy
11:43 PM 78.8 °F 46.4 °F 32% 29.61 in 4.0 mi ESE 16.1 mph 31.1 mph N/A   Haze
11:53 PM 79.0 °F 45.0 °F 30% 29.44 in 2.5 mi ESE 11.5 mph - N/A   Haze